Location: Fayetteville
(35.0530°N, 78.8790°W)
Time: 07:23:21
(UTC-05:00)

ISS - Visible Passes

Search period start: 30 January 2015 00:00
Search period end: 09 February 2015 00:00
Orbit: 401 x 408 km, 51.6° (Epoch: 29 January)

Date Brightness Start Highest point End Pass type
(mag) Time Alt. Az. Time Alt. Az. Time Alt. Az.
01 Feb -0.7 19:29:34 10° S 19:30:03 13° S 19:30:03 13° S visible
02 Feb -1.2 18:38:47 10° SSE 18:40:08 12° SE 18:40:33 12° ESE visible
02 Feb 0.1 20:13:08 10° WSW 20:13:15 11° WSW 20:13:15 11° WSW visible
03 Feb -3.2 19:20:44 10° SW 19:23:39 66° SSW 19:23:39 66° SSW visible
04 Feb -2.4 18:28:45 10° SSW 18:31:41 33° SE 18:33:57 15° ENE visible
04 Feb -0.3 20:05:37 10° W 20:06:37 16° WNW 20:06:37 16° WNW visible
05 Feb -2.2 19:12:37 10° WSW 19:15:42 38° NW 19:16:47 28° N visible
06 Feb -3.3 18:20:01 10° SW 18:23:16 82° NW 18:26:32 10° NE visible
06 Feb -0.2 19:58:55 10° NW 19:59:32 11° NW 19:59:32 11° NW visible
07 Feb -1.0 19:05:09 10° WNW 19:07:32 18° NNW 19:09:30 12° N visible
08 Feb -1.8 18:11:57 10° W 18:14:55 31° NW 18:17:51 10° NNE visible
